This demonstration page uses our WeatherBlox Daily Observations layout. Learn more.

Left ArrowRight Arrow

39.92423, -83.80882

Hourly Observations for March 27, 2019

Temp ( °F °C ) Dew Point ( °F °C ) Humidity (%) Winds ( mph kmh ) Pressure ( in mb ) Visibility ( mi km ) Precip ( " mm )
12:56 am 00:56 Clear 27 -2.8 18 -7.8 69 69 NE 9 15 30.42 1030 10 16.0934 0 0
1:56 am 01:56 Clear 25 -3.9 17 -8.3 72 72 NE 7 11 30.42 1030 10 16.0934 0 0
2:56 am 02:56 Clear 26 -3.3 20 -6.7 78 78 E 7 11 30.41 1030 10 16.0934 0 0
3:56 am 03:56 Clear 28 -2.2 20 -6.7 72 72 ENE 6 9 30.41 1030 10 16.0934 0 0
4:56 am 04:56 Clear 26 -3.3 20 -6.7 78 78 E 6 9 30.4 1030 10 16.0934 0 0
5:56 am 05:56 Clear 22 -5.6 18 -7.8 85 85 E 7 11 30.4 1030 10 16.0934 0 0
6:56 am 06:56 Clear 23 -5 18 -7.8 81 81 E 5 7 30.42 1030 10 16.0934 0 0
7:56 am 07:56 Sunny 25 -3.9 19 -7.2 78 78 E 5 7 30.43 1031 10 16.0934 0 0
8:56 am 08:56 Sunny with Light Wintry Mix 33 0.6 22 -5.6 64 64 E 3 6 30.45 1031 10 16.0934 0.02 0.508
9:56 am 09:56 Sunny 37 2.8 22 -5.6 54 54 SE 6 9 30.45 1031 10 16.0934 0 0.0254
10:56 am 10:56 Sunny 42 5.6 25 -3.9 51 51 SSE 5 7 30.44 1031 10 16.0934 0 0
11:56 am 11:56 Sunny 47 8.3 23 -5 39 39 S 6 9 30.44 1031 10 16.0934 0 0
12:56 pm 12:56 Sunny 48 8.9 22 -5.6 36 36 VRB 3 6 30.42 1030 10 16.0934 0 0
1:56 pm 13:56 Sunny 52 11.1 26 -3.3 37 37 SSE 9 15 30.39 1029 10 16.0934 0 0
2:56 pm 14:56 Sunny 52 11.1 23 -5 32 32 VRB 7 11 30.35 1028 10 16.0934 0 0
3:56 pm 15:56 Sunny 54 12.2 26 -3.3 34 34 SSW 9 15 30.31 1027 10 16.0934 0 0
4:56 pm 16:56 Sunny 54 12.2 23 -5 30 30 SSE 12 19 30.31 1026 10 16.0934 0 0
5:56 pm 17:56 Sunny 55 12.8 23 -5 29 29 SSW 9 15 30.28 1025 10 16.0934 0 0
6:56 pm 18:56 Sunny 53 11.7 24 -4.4 32 32 S 7 11 30.29 1026 10 16.0934 0 0
7:56 pm 19:56 Clear 50 10 26 -3.3 39 39 S 5 7 30.28 1026 10 16.0934 0 0
8:56 pm 20:56 Clear 47 8.3 25 -3.9 42 42 SE 6 9 30.27 1025 10 16.0934 0 0
9:56 pm 21:56 Clear 46 7.8 25 -3.9 44 44 SSE 6 9 30.26 1025 10 16.0934 0 0
10:56 pm 22:56 Clear 47 8.3 24 -4.4 41 41 S 7 11 30.24 1024 10 16.0934 0 0
11:56 pm 23:56 Clear 46 7.8 25 -3.9 44 44 S 7 11 30.24 1024 10 16.0934 0 0

Powered by AerisWeather